Regional Weather Roundup
Issued by NWS

Home | Current Version | Previous Version | Text Only | Print | Product List | Glossary Off
Versions: 1 2 3 4 5 6 7 8 9 10 11 12 13 14 15 16 17 18 19 20 21 22 23 24 25 26 27 28 29 30 31 32 33 34 35 36 37 38 39 40 41 42 43 44 45 46 47 48 49 50

000
ASUS43 KMKX 291521
RWRWI

WISCONSIN REGIONAL WEATHER ROUNDUP
NATIONAL WEATHER SERVICE MILWAUKEE/SULLIVAN WI
1000 AM CDT FRI MAY 29 2015

NOTE: "FAIR" INDICATES FEW OR NO CLOUDS BELOW 12,000 FEET WITH NO
SIGNIFICANT WEATHER AND/OR OBSTRUCTIONS TO VISIBILITY.

WIZ001-002-006>008-014>016-023>028-291600-
NORTHWEST WISCONSIN

CITY           SKY/WX    TMP DP  RH WIND       PRES   REMARKS
SUPERIOR ARPT  CLOUDY    52  46  82 CALM      29.88F
ASHLAND        PTSUNNY   68  64  87 S9        29.87S
HAYWARD        CLOUDY    64  61  90 S10       29.89S
SIREN          CLOUDY    67  63  85 SW10      29.89S
CUMBERLAND     CLOUDY    63  61  94 SW6       29.91R
RICE LAKE      CLOUDY    65  61  89 S6        29.92R
CHETEK         CLOUDY    65  63  93 S6        29.91S
LADYSMITH      CLOUDY    65  62  89 S8        29.93S
EAU CLAIRE     CLOUDY    67  63  87 S8        29.90F
MENOMONIE      CLOUDY    67  64  90 S9        29.90F
NEW RICHMOND   CLOUDY    68  65  91 SW8       29.90R
OSCEOLA        CLOUDY    67  67 100 SW3       29.92R
$$

WIZ003>005-009-010-017-018-291600-
NORTH CENTRAL WISCONSIN

CITY           SKY/WX    TMP DP  RH WIND       PRES   REMARKS
MANITOWISH WTR CLOUDY    66  61  83 SW9       29.91S
ARBOR VITAE    CLOUDY    67  61  79 SW12      29.92S
WOODRUFF       CLOUDY    67  61  79 SW12      29.92S
RHINELANDER    CLOUDY    70  60  70 SW16G23   29.94F
EAGLE RIVER    CLOUDY    66  57  71 SW7       29.92F
LAND O LAKES   CLOUDY    67  58  73 S9        29.92F
PHILLIPS       CLOUDY    65  60  85 SW7       29.91S
TOMAHAWK       PTSUNNY   69  60  74 S5        29.94S
MEDFORD        CLOUDY    65  61  88 SW14      29.94S
MERRILL        CLOUDY    69  62  79 SW16G22   29.95S
$$

WIZ029-030-035-036-043>047-291600-
CENTRAL WISCONSIN

CITY           SKY/WX    TMP DP  RH WIND       PRES   REMARKS
WAUSAU         CLOUDY    69  61  75 S13       29.94S
MOSINEE        CLOUDY    66  63  88 S10       29.98R
MARSHFIELD     CLOUDY    68  61  78 S10       29.95S
STEVENS POINT  CLOUDY    66  61  85 S12       29.97S
WAUPACA        CLOUDY    67  65  92 S5        29.97F
WAUTOMA        CLOUDY    67  67 100 SW3       29.98F
WISC RAPIDS    CLOUDY    68  61  78 SW14G20   29.98S
CAMP DOUGLAS   CLOUDY    68  68 100 S6        29.96S
$$

WIZ011>013-019>022-031-037>040-048>050-291600-
NORTHEAST WISCONSIN

CITY           SKY/WX    TMP DP  RH WIND       PRES   REMARKS
ANTIGO         CLOUDY    67  62  82 SW14      29.97S
SHAWANO        CLOUDY    68  61  79 SW5       29.97F
OCONTO         CLOUDY    64  64 100 CALM      29.98R
STURGEON BAY   CLOUDY    61  55  82 S8        30.02R
GREEN BAY      LGT RAIN  67  61  81 S6        29.98S
MANITOWOC      CLOUDY    63  59  87 SE8       30.01F
APPLETON       CLOUDY    64  61  88 S7        29.99S
CLINTONVILLE   CLOUDY    64  61  88 SW9       29.98S
OSHKOSH        CLOUDY    66  62  87 S9        29.98S
$$

WIZ032>034-041-042-053>061-291600-
SOUTHWEST WISCONSIN

CITY           SKY/WX    TMP DP  RH WIND       PRES   REMARKS
LA CROSSE      PTSUNNY   73  61  65 S9        29.93F
SPARTA         PTSUNNY   71  61  72 S10G16    29.95F
VIROQUA        PTSUNNY   69  64  85 S8        29.96F
BOSCOBEL       CLOUDY    73  64  73 VRB5      29.97F
PRAIRIE DU CHI CLOUDY    71  62  75 CALM      29.96F
PLATTEVILLE    CLOUDY    70  66  89 S9        29.98F
$$

WIZ056-057-062-063-064-067-068-291600-
SOUTH CENTRAL WISCONSIN

CITY           SKY/WX    TMP DP  RH WIND       PRES   REMARKS
REEDSBURG      CLOUDY    68  65  90 S8        29.97F
BARABOO/DELLS  CLOUDY    68  64  84 S8        29.97S
LONE ROCK      CLOUDY    71  64  78 S7        29.97F
MINERAL POINT  CLOUDY    70  64  83 S10       29.98F
MADISON        CLOUDY    71  62  73 S12       29.98F
MIDDLETON      CLOUDY    71  64  78 S9        29.99F
WATERTOWN      PTSUNNY  N/A N/A N/A S9        30.00F
MONROE         CLOUDY    73  64  73 S10       29.99F
JANESVILLE     MOSUNNY   79  64  61 S12G17    29.99F HX  81
$$

WIZ051-052-058>065-066-070>072-291600-
SOUTHEAST WISCONSIN

CITY           SKY/WX    TMP DP  RH WIND       PRES   REMARKS
MILWAUKEE      PTSUNNY   77  64  64 SW12      30.01F
WAUKESHA       MOSUNNY   73  63  68 S7        30.03F
MILWAUKEE/TIMM MOSUNNY   75  61  60 SW10      30.02F
RACINE         MOSUNNY   74  62  66 SE5       30.03F
BURLINGTON     MOSUNNY   77  64  63 S12       30.01F
KENOSHA        PTSUNNY   79  66  64 S13G21    30.02F HX  81
FOND DU LAC    CLOUDY    68  63  84 S9        29.98F
SHEBOYGAN      CLOUDY    68  64  87 S6        30.01F
WEST BEND      CLOUDY    72  59  64 S6        30.02F
JUNEAU         CLOUDY    71  62  74 SE8       30.01F
$$

LSZ147-162-291600-
LAKE SUPERIOR

STATION/POSITION TIME  TEMP    WIND        PRES    WAVE
                       AIR SEA DIR/SP/G            HT/PER
                 (UTC) (F)     (DEG/KT/KT) (MB)    (FT/S)
W MID LAKE BUOY  1450   43 37   90/  2/  4   N/A     1
DEVILS ISLAND    1500   46      CALM  /  1   N/A
PORT WING        1400   45      CALM  /  2   N/A
SAXON HARBOR     1400   65     200/  4/  7   N/A
$$

LMZ867-665-643>646-291600-
LAKE MICHIGAN

STATION/POSITION TIME  TEMP    WIND        PRES    WAVE
                       AIR SEA DIR/SP/G            HT/PER
                 (UTC) (F)     (DEG/KT/KT) (MB)    (FT/S)
CHAMBERS ISLAND  1400   63     150/  6/  9   N/A
N MID LAKE BUOY  1450   43 37  200/ 10/ 10   N/A     1
NORTHPORT PIER   1400   56     150/  7/ 12   N/A
SISTER BAY       1418   58     150/  9/ 12   N/A
ALGOMA LAKESHORE 1408          170/  3/  5   N/A
KEWAUNEE LAKESHO 1400   49     170/  7/  9   N/A
SHEBOYGAN LAKESH 1500   54     190/ 10/ 10   N/A
PORT WASHINGTON  1440   59      90/  1/  2   N/A
ATWATER BUOY     1500   54     160/  8/  8   N/A
MILWAUKEE LAKESH 1500   58      40/  1/  2   N/A
S MID LAKE BUOY  1450   47 38  170/ 12/ 12   N/A     1
KENOSHA   LAKESH 1500   58     180/ 10/ 14   N/A
$$

TC  - TEMPERATURE IN CELSIUS
VSB - VISIBILITY IN STATUTE MILES
WCI - WIND CHILL INDEX
HX  - HEAT INDEX



USA.gov is the U.S. government's official web portal to all federal, state and local government web resources and services.